Regional Weather Roundup
Issued by NWS

Home | Current Version | Previous Version | Text Only | Print | Product List | Glossary On
Versions: 1 2 3 4 5 6 7 8 9 10 11 12 13 14 15 16 17 18 19 20 21 22 23 24 25 26 27 28 29 30 31 32 33 34 35 36 37 38 39 40 41 42 43 44 45 46 47 48 49 50
000
ASUS44 KOUN 250510
RWROK

WEATHER ROUNDUP FOR OKLAHOMA
NATIONAL WEATHER SERVICE NORMAN OK
1200 AM CDT TUE APR 25 2017

NOTE: "FAIR" INDICATES FEW OR NO CLOUDS BELOW 12,000 FEET WITH NO
      SIGNIFICANT WEATHER AND/OR OBSTRUCTIONS TO VISIBILITY.

OKZ001>007-009>012-014-015-017-250600-
NORTHWEST OKLAHOMA AND THE PANHANDLE

CITY           SKY/WX    TMP DP  RH WIND       PRES   REMARKS
GAGE           PTCLDY    66  50  56 S24G33    29.41F
GUYMON         MOCLDY    62  36  37 W12       29.41F
ENID/WOODRING  CLOUDY    61  52  72 SE9       29.50F
$$

OKZ016-021>023-033>039-044-045-250600-
SOUTHWEST OKLAHOMA

CITY           SKY/WX    TMP DP  RH WIND       PRES   REMARKS
LAWTON/REGL    MOCLDY    65  53  65 SE10      29.53F
LAWTON/FT SILL CLOUDY    64  54  69 S12       29.52F
FREDERICK      CLOUDY    67  53  61 SE14      29.49S
CLINTON        CLOUDY    67  50  54 S25G33    29.49F
HOBART         CLOUDY    67  51  56 S26G33    29.48F
ALTUS AFB      CLOUDY    66  50  57 SE14      29.49F
$$

OKZ018>020-024>031-250600-
CENTRAL OKLAHOMA

CITY           SKY/WX    TMP DP  RH WIND       PRES   REMARKS
OKLAHOMA CITY  CLOUDY    63  49  60 S18G26    29.52F
OKC/WILEY POST CLOUDY    65  50  58 S26G36    29.51F
OKC/TINKER AFB PTCLDY    64  49  58 S18       29.53F
STILLWATER     CLOUDY    63  47  55 SE13      29.54F
GUTHRIE        CLOUDY    65  49  56 S13G21    29.52F
$$

OKZ008-013-054>072-250600-
NORTHEAST OKLAHOMA

CITY           SKY/WX    TMP DP  RH WIND       PRES   REMARKS
TULSA          PTCLDY    64  48  56 SE12      29.59F
TULSA/JONES    CLEAR     64  47  53 S8        29.60F
PONCA CITY     PTCLDY    64  47  53 SE15G25   29.54F
BARTLESVILLE   PTCLDY    59  48  67 S3        29.61F
MUSKOGEE       CLOUDY    59  47  64 SE8       29.66F
$$

OKZ032-040>043-046>053-073>077-250600-
SOUTH CENTRAL/SOUTHEAST OKLAHOMA

CITY           SKY/WX    TMP DP  RH WIND       PRES   REMARKS
ARDMORE/DWNTWN CLOUDY    63  48  59 S9        29.60F
MCALESTER      CLOUDY    65  49  56 S8        29.64F
$$





USA.gov is the U.S. government's official web portal to all federal, state and local government web resources and services.